STARLINK-32855, 62813

Orbit data source: Space-Track

STARLINK-32855, 62813 is a payload satellite owned by SpaceX/Seattle (US) in LEO that was launched on Fri, 24 Jan 2025 UTC via an FALCON 9 launch vehicle from the Air Force Western Test Range (AFWTR). Payload-class satellites include a variety of spacecraft equipped with specific instruments for various scientific and technological missions. These include communications satellites like Starlink; space stations such as the ISS; scientific satellites like the Hubble; Earth observation satellites from companies like Planet Labs, Umbra, and HawkEye 360; GPS; miniature CubeSats for education and research; and military/defense satellites.

Loading next visibility...
Identifier
62813, 2025-018H
Orbit
LEO
Country
Flag of USUS
Related business
Manufacturer
SpaceX/Seattle
Mission
Operational Commercial Communications
Bus & Motor
STARLINK V2M, Unknown motor
Mass
730 kg wet, ~700 kg dry
Launch date (UTC)
2025-01-24 (8 months ago)
Launch vehicle
FALCON 9
Launch site
Air Force Western Test Range (AFWTR)
Object type
Payload
Rocket body
Debris
Shape & HBR
Box + 2 Pan, 14.5 m
Radar Cross Section
33.884 m², Large (>1 m²)

Expand to show TLE details & history
Last TLE update: 16 hours ago

TLE from 16 hours ago
0 STARLINK-32855
1 62813U 25018H   25261.59277231  .00015877  00000-0  54707-3 0  9992
2 62813  53.1590  28.6793 0000870  83.0576 277.0524 15.30198234 36826
Epoch: 2025-09-18T14:13Z
TLE epoch observation values (Epoch: 2025-09-18T14:13:35.527Z)
Latitude
-0°
Longitude
177.52912°
Altitude
476.047 km
Speed
7.629 km/s
True Right ascension
01h 54m 43s
True Declination
0° 00' 00"
Sunlit
Object was in full shadow at epoch
Visualization orbit readout
Latitude
Unknown
Longitude
Unknown
Altitude
Unknown
Speed
Unknown
Apparent Right ascension
Unknown
Apparent Declination
Unknown
Sunlit
N/A
Visualization observer readout
Local Sidereal Time
22:51:30
Azimuth
Unknown
Elevation
Unknown
Doppler factor
Unknown
Orbital elements
Apogee altitude
476.073 km
Perigee altitude
474.881 km
Semi-major axis
6,853.614 km
Eccentricity
0.00009
Inclination
53.159°
RAAN
28.6793°
Arg. of periapsis
83.0576°
True anomaly
277.04251°
Mean anomaly
277.0524°
Eccentric anomaly
277.04745°
Mean motion
3.82528 °/min
Orbital period
94.11 mins
BSTAR
0.00054707
Loading maneuver chart data...
Computing Atmospheric mass density...
Loading historical data...
Loading historical data...
Loading historical data...
Loading historical data...
Loading historical data...
Loading historical data...
Loading historical data...

Documentation

Showing up to 5 results
|